COSMOS 2500 (755)

Last updated on Tue Dec 03 2024 00:03:11 GMT+0000 (Coordinated Universal Time)

1 40001U 14032A 24337.34216658 -.00000033 00000+0 00000+0 0 9994 2 40001 65.5384 332.7577 0008323 221.7944 138.1616 2.13105997 81481
UTC large
Height (km)
Speed (km/s)
/
Latitude / Longitude
Inclination (degrees)
Orbital Period (minutes)
Azimuth
Elevation
Range (km)
Doppler Factor

Next 0 passes for location: London (51.5072 / 0.1276)

Sorry there are no passes over London.